Showing default

METEOR M2-2, 44387

Orbit data source: Space-Track

METEOR M2-2, 44387 is a Commonwealth of Independent States-origin payload satellite in SSO that was launched on Fri, 05 Jul 2019 UTC via a SOYUZ-2-1B launch vehicle from the Vostochny Cosmodrome (VOSTO). Payload-class satellites include a variety of spacecraft equipped with specific instruments for various scientific and technological missions. These include communications satellites like Starlink; space stations such as the ISS; scientific satellites like the Hubble; Earth observation satellites from companies like Planet Labs, Umbra, and HawkEye 360; GPS; miniature CubeSats for education and research; and military/defense satellites.

Loading next visibility...
Identifier
44387, 2019-038A
Orbit
SSO
Country
Flag of CISCIS
Related business
Manufacturer
VNIIEM
Mission
Partially operational Civil Weather
Bus & Motor
RESURS-O, Unknown motor
Mass
2,879 kg wet, ~2,600 kg dry
Launch date (UTC)
2019-07-05 (6 years ago)
Launch vehicle
SOYUZ-2-1B
Launch site
Vostochny Cosmodrome (VOSTO)
Object type
Payload
Rocket body
Debris
Shape & HBR
Cyl + 2 Pan, 7.0 m
Radar Cross Section
26.744 m², Large (>1 m²)

Expand to show TLE details & history
Last TLE update: 19 hours ago

TLE from 19 hours ago
0 METEOR M2-2
1 44387U 19038A   25242.27285164  .00000206  00000-0  10924-3 0  9994
2 44387  98.8829 220.7878 0002147 112.5462 247.5944 14.24228859319880
Epoch: 2025-08-30T06:32Z
TLE epoch observation values (Epoch: 2025-08-30T06:32:54.381Z)
Latitude
Longitude
143.85169°
Altitude
814.59 km
Speed
7.446 km/s
True Right ascension
14h 43m 09s
True Declination
0° 00' 00"
Sunlit
Object was in daylight at epoch
Visualization orbit readout
Latitude
Unknown
Longitude
Unknown
Altitude
Unknown
Speed
Unknown
Apparent Right ascension
Unknown
Apparent Declination
Unknown
Sunlit
N/A
Visualization observer readout
Local Sidereal Time
16:52:16
Azimuth
Unknown
Elevation
Unknown
Doppler factor
Unknown
Orbital elements
Apogee altitude
809.791 km
Perigee altitude
806.705 km
Semi-major axis
7,186.385 km
Eccentricity
0.00021
Inclination
98.8829°
RAAN
220.7878°
Arg. of periapsis
112.5462°
True anomaly
247.57166°
Mean anomaly
247.5944°
Eccentric anomaly
247.58303°
Mean motion
3.56269 °/min
Orbital period
101.05 mins
BSTAR
0.00010924
Loading maneuver chart data...
Computing Atmospheric mass density...

Documentation

Showing up to 5 results
|